Regional Weather Roundup
Issued by NWS Northern Indiana

Home | Current Version | Previous Version | Text Only | Print | Product List | Glossary Off
Versions: 1 2 3 4 5 6 7 8 9 10 11 12 13 14 15 16 17 18 19 20 21 22 23 24 25 26 27 28 29 30 31 32 33 34 35 36 37 38 39 40 41 42 43 44 45 46 47 48 49 50

927
ASUS43 KIWX 190400
RWRIWX

KIWX WEATHER ROUNDUP
NATIONAL WEATHER SERVICE NORTHERN INDIANA
1100 PM EST SAT NOV 18 2017

NOTE: "FAIR" INDICATES FEW OR NO CLOUDS BELOW 12,000 FEET WITH NO
SIGNIFICANT WEATHER AND/OR OBSTRUCTIONS TO VISIBILITY.

* THESE STATIONS ARE NOT UNDER NWS QUALITY CONTROL. THEY ALSO MAY NOT
  REPORT WEATHER SUCH AS PRECIPITATION OR FOG.

INZ001>027-190500-
NORTHERN INDIANA

CITY           SKY/WX    TMP DP  RH WIND       PRES   REMARKS
GARY*          CLOUDY    41  28  60 NW12G23   29.79R
SOUTH BEND     CLOUDY    39  34  82 NW17      29.70R
GOSHEN         CLOUDY    39  33  79 NW18G31   29.66R
MONTICELLO*    CLOUDY    38  32  79 NW22G30   29.75R
FORT WAYNE     CLOUDY    42  37  82 NW16      29.63R
PERU/GRISSOM   CLOUDY    40  36  86 NW17G26   29.70R

$$
INZ028>050-190500-
CENTRAL INDIANA

CITY           SKY/WX    TMP DP  RH WIND       PRES   REMARKS
LAFAYETTE      CLOUDY    38  33  82 NW10G21   29.79R
KOKOMO*        CLOUDY    39  37  92 NW22G28   29.71R
MUNCIE*        LGT RAIN  42  38  85 NW20G28   29.66R
INDIANAPOLIS   CLOUDY    39  33  79 NW24G35   29.78R

$$
MIZ043>046-050>051-056>058-064>065-071>073-077>080-190500-
SOUTHWEST LOWER MICHIGAN

CITY           SKY/WX    TMP DP  RH WIND       PRES   REMARKS
BATTLE CREEK   CLOUDY    39  35  86 NW21G26   29.61R
BENTON HARBOR  CLOUDY    42  30  62 NW18G29   29.70R
COLDWATER*     CLOUDY    39  36  89 NW14      29.59R
HILLSDALE*     CLOUDY    36  32  87 NW18G28   29.55R
HOLLAND        LGT RAIN  39  32  76 N16G31    29.67R
GRAND RAPIDS   CLOUDY    39  34  82 NW12      29.62R
KALAMAZOO      CLOUDY    39  32  76 NW21G30   29.63R
THREE RIVERS*  CLOUDY    41  33  73 NW20G25   29.64R

$$
OHZ001>008-015>018-024>025-190500-
NORTHWEST OHIO

CITY           SKY/WX    TMP DP  RH WIND       PRES   REMARKS
DEFIANCE       CLOUDY    39  34  82 NW15      29.57R
FINDLAY        LGT RAIN  38  34  85 NW20      29.52R
TOLEDO EXPRESS CLOUDY    39  36  89 NW15      29.51R
TOLEDO METCALF LGT RAIN  38  35  89 NW14G25   29.51R

$$
AND FOR LAKE MICHIGAN COASTAL AND OPEN LAKE BUOY OBSERVATIONS

STATION/POSITION TEMP    WIND        PRES    VSBY  WAVE
                 AIR SEA DIR/SP/G                  HT/PER
                 (F)     (DEG/KT/KT) (MB)    (MI)  (FT/S)
MICHIGAN CITY     41     310/ 26/ 29   N/A
BURNS HARBOR      41     320/ 27/ 31 1007.8R
SAINT JOSEPH      43     330/ 24/ 30 1006.4
SOUTH LAKE BUOY   41 49  340/ 25/ 31 1005.4         10/ 8

$$
&&




USA.gov is the U.S. government's official web portal to all federal, state and local government web resources and services.